Aérodrome :
LOGIN :

S'inscrire | Disclaimer

   EN    FR    IT 

 










Légende :    VFR   VFR Marginal   IFR   IFR Intensif   IFR Très Intensif
Visi : 
Plafond : 
>= 8 km
>= 3000ft
5 à 8 km
1000 à 3000 ft
1500m à 5 km
500 à 1000 ft
800 à 1500m
200 à 500 ft
< 800m
< 200 ft
Symboles :   Orages  Brouillard  Fortes neiges  Fortes précipitations  Vent > 20 kt
SIGMETs :   Divers  Orages  Givrage  Turbulence  Onde Orograph.  Cendres Volcan.







- Altitude de l'aérodrome : 36 ft
- Code IATA : LTQ
- Voir les cartes d'approche


LFAT - Le Touquet

DERNIER METAR :
  • 130800Z AUTO 11009KT CAVOK 00/M02 Q1017 NOSIG

METARs EXPIRÉS :
  • 130730Z AUTO 10010KT CAVOK 01/M02 Q1017 NOSIG
  • 130700Z AUTO 10009KT CAVOK 00/M02 Q1017 NOSIG
  • 130630Z AUTO 10010KT CAVOK 01/M02 Q1017 NOSIG
  • 130600Z AUTO 11010KT CAVOK 01/M01 Q1017 NOSIG
  • 130530Z AUTO 11008KT CAVOK 00/M01 Q1017 NOSIG

TAF TAF LFAT
Valide du 13 à 06h jusqu'au 13 à 15h UTC


130500Z 1306/1315 11013KT CAVOK
ATIS : +33 3 21 06 62 84
Pas de NOTAMs connus pour ce terrain.



MET'MAP, la Météo Aéronautique d'un coup d'oeil ! - Copyright ORBIFLY Décembre 2007 - Disclaimer

ORBIFLY MET'MAP TEAM :

Programmation & Développement : Alexandra Zaïnal
Conception & Développement : Baudouin d'Aumeries
Co-Programmation & Développement : Marc-Olivier Méhu
Soutien technique & logistique : Manuel Goepfert

Contact : metmap@orbifly.com




SOURCES & CREDITS :

   NOAA